GMS-T (47346 NORAD) Tracking and Keplerian Element Data

This shows tracking and keplerian element data for the satellite.

Feedback or suggestion? Click here.




ElementValue
Catalog47346
NameGMS-T
Epoch Orbit1110
Epoch Day104.83462528
Epoch Year2021
RAAN229.8244
Inclination90.0076
Eccentricity0.0003772
Argument of Perigee131.222
Mean Anonmoly228.9237
Mean Motion13.16599188
Decay Rate-2.9E-07
L11 47346U 21004A 21104.83462528 -.00000029 00000-0 -97044-4 0 9998
L22 47346 90.0076 229.8244 0003772 131.2220 228.9237 13.16599188 11106

Live tracking and technical data element details for GMS-T (NORAD 47346). GMS-T can be tracked NOW for your location showing map with azimuth and elevation plus other details from your city location.

Track the satellite on the map from your city or location and see movement details for azimuth, elevation, latitude, longitude, range, height, and movement on the map or in text.







IsCatalogInMostPopularTable: catalog: 47346, numindb: 22
Update: records affected: 1



GetName: 47346 GMS-T

Hit Count: updated at: Fri, 16 Apr 2021 10:24:56 GMT